Find Starlink 32265

NORAD ID: 60415 Int'l Des: 2024-141 Owner: SPXS Country: US Constellation: starlink operational
LEOCIRCULAR

实时位置

正在加载3D地球...

关于 Starlink 32265

正在加载描述...

即将过境

Passes for default location (London). Set your location on the main map for personalized predictions.

高度历史

Loading altitude history...

两行轨道根数

1 60415U 24141T 26122.91356124 -.00001280 00000-0 -26770-4 0 9991
2 60415 53.1606 350.6435 0001289 48.1433 311.9679 15.34389439 97885
Epoch: May 2, 2026 • Age: 10 hours

当前状态

高度 474.5 km
速度 7.63 km/s
星下点 -34.31°S, 146.25°W
发射日期 Aug 10, 2024
运行时间 1.7 years
类型 internet

技术详情

分类 Payload
质量 730.00 kg
干质量 700.00 kg
总质量 730.00 kg
长度 0.30 m
直径 4.10 m
跨度 29.00 m
形状 Box + pan
制造商 SPXS
平台类型 Starlink V2M
阶段状态 In Orbit
所有者/国家 SPXS/US

Most Searched